| time (UTC) | temp F | wind direction | speed knots | gust knots | rain 1hr in | rain 24hr in | rain mn in | humidity % | barometer mb |
| 20260507051830 | 51 | 0.0 | 0.0 | 0.00 | 0.00 | 0.00 | 80 | 1016.7 | |
| 20260507050900 | 48 | 0.0 | 0.0 | 0.00 | 0.00 | 0.00 | 84 | 1016.6 | |
| 20260507045830 | 47 | 0.0 | 0.0 | 0.00 | 0.00 | 0.00 | 86 | 1016.5 | |
| 20260507044837 | 45 | 0.0 | 0.0 | 0.00 | 0.00 | 0.00 | 88 | 1016.4 | |
| 20260507043830 | 43 | 0.0 | 0.0 | 0.00 | 0.00 | 0.00 | 88 | 1016.3 | |
| 20260507042835 | 43 | 0.0 | 0.0 | 0.00 | 0.00 | 0.00 | 88 | 1016.2 | |
| 20260507041858 | 43 | 0.0 | 0.0 | 0.00 | 0.00 | 0.00 | 88 | 1016.2 | |
| 20260507040830 | 42 | 0.0 | 0.0 | 0.00 | 0.00 | 0.00 | 88 | 1016.1 | |
| 20260507035830 | 42 | 0.0 | 0.0 | 0.00 | 0.00 | 0.00 | 87 | 1016.1 | |
| 20260507034835 | 43 | 0.0 | 0.0 | 0.00 | 0.00 | 0.00 | 87 | 1016.0 | |
| 20260507033830 | 43 | 0.0 | 0.0 | 0.00 | 0.00 | 0.00 | 86 | 1016.0 | |
| 20260507032830 | 43 | 0.0 | 0.0 | 0.00 | 0.00 | 0.00 | 86 | 1016.0 | |
| 20260507031838 | 44 | 0.0 | 0.0 | 0.00 | 0.00 | 0.00 | 86 | 1015.9 | |
| 20260507030830 | 44 | 0.0 | 1.7 | 0.00 | 0.00 | 0.00 | 86 | 1015.9 | |
| 20260507025835 | 44 | 0.0 | 0.0 | 0.00 | 0.00 | 0.00 | 86 | 1015.8 | |
| 20260507024830 | 44 | 0.0 | 0.0 | 0.00 | 0.00 | 0.00 | 86 | 1015.7 | |
| 20260507023835 | 44 | 270 | 0.9 | 0.9 | 0.00 | 0.00 | 0.00 | 85 | 1015.7 |
| 20260507022830 | 44 | 0.0 | 1.7 | 0.00 | 0.00 | 0.00 | 85 | 1015.7 | |
| 20260507021830 | 44 | 270 | 0.9 | 1.7 | 0.00 | 0.00 | 0.00 | 85 | 1015.7 |
| 20260507020829 | 44 | 0.0 | 0.0 | 0.00 | 0.00 | 0.00 | 85 | 1015.6 | |
| 20260507015830 | 44 | 0.0 | 0.9 | 0.00 | 0.00 | 0.00 | 84 | 1015.4 | |
| 20260507014830 | 45 | 0.0 | 0.9 | 0.00 | 0.00 | 0.00 | 84 | 1015.4 | |
| 20260507013830 | 45 | 276 | 0.0 | 1.7 | 0.00 | 0.00 | 0.00 | 83 | 1015.3 |
| 20260507012844 | 45 | 271 | 0.9 | 1.7 | 0.00 | 0.00 | 0.00 | 83 | 1015.4 |
| 20260507011830 | 45 | 270 | 1.7 | 2.6 | 0.00 | 0.00 | 0.00 | 82 | 1015.3 |
| 20260507010830 | 46 | 271 | 0.9 | 0.9 | 0.00 | 0.00 | 0.00 | 82 | 1015.3 |
| 20260507005830 | 46 | 270 | 1.7 | 1.7 | 0.00 | 0.00 | 0.00 | 81 | 1015.3 |
| 20260507004830 | 46 | 271 | 0.9 | 1.7 | 0.00 | 0.00 | 0.00 | 82 | 1015.2 |
| 20260507003830 | 46 | 271 | 1.7 | 2.6 | 0.00 | 0.00 | 0.00 | 82 | 1015.2 |
| 20260507002830 | 47 | 273 | 0.9 | 3.5 | 0.00 | 0.00 | 0.00 | 81 | 1015.2 |
| 20260507001835 | 47 | 270 | 2.6 | 3.5 | 0.00 | 0.00 | 0.00 | 82 | 1015.2 |
| 20260507000855 | 47 | 272 | 1.7 | 3.5 | 0.00 | 0.00 | 0.00 | 81 | 1015.0 |
| 20260506235835 | 47 | 284 | 2.6 | 3.5 | 0.00 | 0.00 | 0.00 | 81 | 1015.0 |
| 20260506234830 | 48 | 284 | 1.7 | 3.5 | 0.00 | 0.00 | 0.00 | 81 | 1015.1 |
| 20260506233830 | 48 | 284 | 3.5 | 5.2 | 0.00 | 0.00 | 0.00 | 80 | 1015.0 |
| 20260506232831 | 48 | 290 | 4.3 | 4.3 | 0.00 | 0.00 | 0.00 | 80 | 1015.1 |
| 20260506231850 | 48 | 290 | 2.6 | 6.1 | 0.00 | 0.00 | 0.00 | 80 | 1015.1 |
| 20260506230830 | 49 | 115 | 2.6 | 7.0 | 0.00 | 0.00 | 0.00 | 80 | 1015.0 |
| 20260506225830 | 49 | 270 | 2.6 | 3.5 | 0.00 | 0.00 | 0.00 | 79 | 1014.9 |
| 20260506224830 | 49 | 287 | 3.5 | 5.2 | 0.00 | 0.00 | 0.00 | 79 | 1015.0 |
| 20260506223831 | 49 | 287 | 4.3 | 7.0 | 0.00 | 0.00 | 0.00 | 78 | 1015.0 |
| 20260506222832 | 49 | 287 | 2.6 | 5.2 | 0.00 | 0.00 | 0.00 | 79 | 1014.8 |
| 20260506221830 | 49 | 275 | 0.9 | 2.6 | 0.00 | 0.00 | 0.00 | 79 | 1014.8 |
| 20260506220830 | 49 | 273 | 2.6 | 6.1 | 0.00 | 0.00 | 0.00 | 78 | 1014.7 |
| 20260506215830 | 50 | 270 | 2.6 | 3.5 | 0.00 | 0.00 | 0.00 | 78 | 1014.7 |
| 20260506214830 | 49 | 270 | 2.6 | 3.5 | 0.00 | 0.00 | 0.00 | 77 | 1014.7 |
| 20260506213831 | 50 | 270 | 2.6 | 4.3 | 0.00 | 0.00 | 0.00 | 76 | 1014.5 |
| 20260506212835 | 50 | 311 | 2.6 | 3.5 | 0.00 | 0.00 | 0.00 | 75 | 1014.4 |
| 20260506211830 | 50 | 311 | 4.3 | 6.1 | 0.00 | 0.00 | 0.00 | 74 | 1014.4 |
| 20260506210830 | 51 | 311 | 2.6 | 4.3 | 0.00 | 0.00 | 0.00 | 73 | 1014.3 |
| 20260506205835 | 51 | 270 | 3.5 | 5.2 | 0.00 | 0.00 | 0.00 | 72 | 1014.3 |
| 20260506204838 | 52 | 358 | 4.3 | 6.1 | 0.00 | 0.00 | 0.00 | 71 | 1014.2 |
| 20260506203920 | 52 | 358 | 3.5 | 5.2 | 0.00 | 0.00 | 0.00 | 71 | 1014.1 |
| 20260506202830 | 53 | 358 | 3.5 | 5.2 | 0.00 | 0.00 | 0.00 | 69 | 1014.1 |
| 20260506201831 | 53 | 358 | 2.6 | 2.6 | 0.00 | 0.00 | 0.00 | 66 | 1014.0 |
| 20260506200830 | 53 | 358 | 6.1 | 7.8 | 0.00 | 0.00 | 0.00 | 63 | 1013.9 |
| 20260506195831 | 53 | 111 | 4.3 | 7.8 | 0.00 | 0.00 | 0.00 | 63 | 1013.8 |
| 20260506194831 | 54 | 111 | 2.6 | 4.3 | 0.00 | 0.00 | 0.00 | 63 | 1013.6 |
| 20260506193831 | 54 | 111 | 5.2 | 7.8 | 0.00 | 0.00 | 0.00 | 62 | 1013.6 |
| 20260506192836 | 54 | 111 | 3.5 | 5.2 | 0.00 | 0.00 | 0.00 | 62 | 1013.5 |
| 20260506191855 | 54 | 288 | 4.3 | 8.7 | 0.00 | 0.00 | 0.00 | 61 | 1013.3 |
| 20260506190836 | 55 | 288 | 2.6 | 6.1 | 0.00 | 0.00 | 0.00 | 62 | 1013.2 |
| 20260506185831 | 55 | 288 | 4.3 | 7.0 | 0.00 | 0.00 | 0.00 | 62 | 1013.0 |
| 20260506184830 | 55 | 305 | 2.6 | 7.8 | 0.00 | 0.00 | 0.00 | 62 | 1012.9 |
| 20260506183851 | 56 | 298 | 8.7 | 10.4 | 0.00 | 0.00 | 0.00 | 61 | 1012.9 |
| 20260506182836 | 56 | 103 | 5.2 | 8.7 | 0.00 | 0.00 | 0.00 | 61 | 1012.7 |
| 20260506181831 | 57 | 102 | 3.5 | 4.3 | 0.00 | 0.00 | 0.00 | 60 | 1012.6 |
| 20260506180831 | 56 | 290 | 2.6 | 4.3 | 0.00 | 0.00 | 0.00 | 59 | 1012.5 |
| 20260506175831 | 56 | 73 | 5.2 | 5.2 | 0.00 | 0.00 | 0.00 | 60 | 1012.4 |
| 20260506174831 | 56 | 274 | 2.6 | 3.5 | 0.00 | 0.00 | 0.00 | 61 | 1012.2 |
| 20260506173836 | 56 | 128 | 3.5 | 7.8 | 0.00 | 0.00 | 0.00 | 61 | 1012.2 |
| 20260506172836 | 56 | 163 | 2.6 | 4.3 | 0.00 | 0.00 | 0.00 | 60 | 1012.0 |
| 20260506171851 | 56 | 105 | 2.6 | 4.3 | 0.00 | 0.00 | 0.00 | 59 | 1011.9 |
| 20260506170831 | 56 | 192 | 4.3 | 7.0 | 0.00 | 0.00 | 0.00 | 58 | 1011.9 |
| 20260506165830 | 56 | 113 | 7.0 | 10.4 | 0.00 | 0.00 | 0.00 | 56 | 1011.8 |
| 20260506164831 | 57 | 94 | 1.7 | 4.3 | 0.00 | 0.00 | 0.00 | 54 | 1011.7 |
| 20260506163831 | 57 | 167 | 1.7 | 6.1 | 0.00 | 0.00 | 0.00 | 54 | 1011.8 |
| 20260506162831 | 57 | 319 | 3.5 | 10.4 | 0.00 | 0.00 | 0.00 | 53 | 1011.7 |
| 20260506161831 | 57 | 274 | 4.3 | 5.2 | 0.00 | 0.00 | 0.00 | 52 | 1011.8 |
| 20260506160831 | 57 | 101 | 3.5 | 5.2 | 0.00 | 0.00 | 0.00 | 50 | 1011.6 |
| 20260506155831 | 58 | 95 | 5.2 | 6.1 | 0.00 | 0.00 | 0.00 | 47 | 1011.6 |
| 20260506154831 | 58 | 118 | 4.3 | 5.2 | 0.00 | 0.00 | 0.00 | 46 | 1011.7 |
| 20260506153831 | 58 | 113 | 2.6 | 6.1 | 0.00 | 0.00 | 0.00 | 46 | 1011.7 |
| 20260506152859 | 58 | 174 | 3.5 | 4.3 | 0.00 | 0.00 | 0.00 | 45 | 1011.7 |
| 20260506151836 | 58 | 102 | 5.2 | 7.0 | 0.00 | 0.00 | 0.00 | 44 | 1011.5 |
| 20260506150831 | 59 | 96 | 3.5 | 7.0 | 0.00 | 0.00 | 0.00 | 43 | 1011.5 |
| 20260506145831 | 59 | 110 | 5.2 | 11.3 | 0.00 | 0.00 | 0.00 | 44 | 1011.5 |
| 20260506144901 | 59 | 90 | 3.5 | 6.1 | 0.00 | 0.00 | 0.00 | 44 | 1011.4 |
| 20260506143916 | 59 | 96 | 5.2 | 6.1 | 0.00 | 0.00 | 0.00 | 43 | 1011.4 |
| 20260506142831 | 59 | 98 | 7.0 | 10.4 | 0.00 | 0.00 | 0.00 | 44 | 1011.4 |
| 20260506141831 | 60 | 99 | 3.5 | 6.1 | 0.00 | 0.00 | 0.00 | 44 | 1011.4 |
| 20260506140831 | 60 | 98 | 5.2 | 7.0 | 0.00 | 0.00 | 0.00 | 43 | 1011.4 |
| 20260506135831 | 60 | 168 | 4.3 | 8.7 | 0.00 | 0.00 | 0.00 | 44 | 1011.4 |
| 20260506134831 | 59 | 30 | 6.1 | 7.0 | 0.00 | 0.00 | 0.00 | 45 | 1011.4 |
| 20260506133831 | 59 | 172 | 5.2 | 12.2 | 0.00 | 0.00 | 0.00 | 46 | 1011.3 |
| 20260506132851 | 60 | 147 | 4.3 | 9.6 | 0.00 | 0.00 | 0.00 | 44 | 1011.3 |
| 20260506131831 | 60 | 114 | 3.5 | 12.2 | 0.00 | 0.00 | 0.00 | 45 | 1011.4 |
| 20260506130831 | 60 | 158 | 3.5 | 8.7 | 0.00 | 0.00 | 0.00 | 45 | 1011.2 |
| 20260506125831 | 61 | 111 | 3.5 | 8.7 | 0.00 | 0.00 | 0.00 | 46 | 1011.1 |
| 20260506124851 | 59 | 104 | 7.8 | 10.4 | 0.00 | 0.00 | 0.00 | 45 | 1011.2 |
| 20260506123851 | 60 | 140 | 7.0 | 10.4 | 0.00 | 0.00 | 0.00 | 45 | 1011.1 |
| 20260506122833 | 60 | 279 | 4.3 | 7.0 | 0.00 | 0.00 | 0.00 | 46 | 1011.1 |
| 20260506121832 | 60 | 125 | 7.8 | 12.2 | 0.00 | 0.00 | 0.00 | 43 | 1011.1 |
| 20260506120832 | 60 | 121 | 4.3 | 9.6 | 0.00 | 0.00 | 0.00 | 44 | 1011.1 |
| 20260506115832 | 60 | 156 | 7.8 | 12.2 | 0.00 | 0.00 | 0.00 | 44 | 1011.1 |
| 20260506114840 | 60 | 107 | 4.3 | 10.4 | 0.00 | 0.00 | 0.00 | 46 | 1011.1 |
| 20260506113831 | 59 | 100 | 7.0 | 12.2 | 0.00 | 0.00 | 0.00 | 47 | 1011.0 |
| 20260506112836 | 58 | 111 | 4.3 | 6.1 | 0.00 | 0.00 | 0.00 | 55 | 1011.0 |
| 20260506111831 | 59 | 108 | 2.6 | 9.6 | 0.00 | 0.00 | 0.00 | 54 | 1011.0 |
| 20260506110831 | 58 | 108 | 5.2 | 6.1 | 0.00 | 0.00 | 0.00 | 53 | 1011.0 |
| 20260506105952 | 59 | 290 | 4.3 | 8.7 | 0.00 | 0.00 | 0.00 | 52 | 1011.1 |
| 20260506104831 | 59 | 290 | 6.1 | 7.8 | 0.00 | 0.00 | 0.00 | 54 | 1011.0 |
| 20260506103832 | 58 | 276 | 4.3 | 6.1 | 0.00 | 0.00 | 0.00 | 51 | 1011.1 |
| 20260506102831 | 58 | 276 | 5.2 | 10.4 | 0.00 | 0.00 | 0.00 | 57 | 1011.0 |
| 20260506101832 | 58 | 99 | 5.2 | 11.3 | 0.00 | 0.00 | 0.00 | 63 | 1011.0 |
| 20260506100832 | 57 | 276 | 5.2 | 7.8 | 0.00 | 0.00 | 0.00 | 61 | 1010.9 |
| 20260506095831 | 57 | 93 | 7.0 | 7.8 | 0.00 | 0.00 | 0.00 | 62 | 1010.9 |
| 20260506094832 | 57 | 123 | 4.3 | 10.4 | 0.00 | 0.00 | 0.00 | 64 | 1010.9 |
| 20260506093836 | 57 | 289 | 2.6 | 7.8 | 0.00 | 0.00 | 0.00 | 66 | 1010.8 |
| 20260506092857 | 57 | 272 | 3.5 | 5.2 | 0.00 | 0.00 | 0.00 | 65 | 1010.8 |
| 20260506091852 | 58 | 108 | 4.3 | 7.0 | 0.00 | 0.00 | 0.00 | 63 | 1010.7 |
| 20260506090852 | 57 | 153 | 3.5 | 6.1 | 0.00 | 0.00 | 0.00 | 66 | 1010.7 |
| 20260506085832 | 57 | 121 | 8.7 | 11.3 | 0.00 | 0.00 | 0.00 | 65 | 1010.7 |
| 20260506084852 | 57 | 142 | 3.5 | 4.3 | 0.00 | 0.00 | 0.00 | 68 | 1010.6 |
| 20260506083851 | 56 | 323 | 7.0 | 9.6 | 0.00 | 0.00 | 0.00 | 68 | 1010.6 |
| 20260506082831 | 56 | 0 | 4.3 | 8.7 | 0.00 | 0.00 | 0.00 | 68 | 1010.6 |
| 20260506081832 | 57 | 335 | 4.3 | 9.6 | 0.00 | 0.00 | 0.00 | 68 | 1010.6 |
| 20260506080832 | 56 | 116 | 5.2 | 6.1 | 0.00 | 0.00 | 0.00 | 69 | 1010.6 |
| 20260506072832 | 54 | 178 | 6.1 | 10.4 | 0.00 | 0.00 | 0.00 | 73 | 1010.4 |
| 20260506071832 | 54 | 294 | 4.3 | 7.0 | 0.00 | 0.00 | 0.00 | 75 | 1010.4 |
| 20260506070832 | 54 | 294 | 6.1 | 10.4 | 0.00 | 0.00 | 0.00 | 76 | 1010.3 |
| 20260506061932 | 53 | 96 | 3.5 | 6.1 | 0.00 | 0.00 | 0.00 | 78 | 1010.1 |
| 20260506060834 | 52 | 96 | 4.3 | 6.1 | 0.00 | 0.00 | 0.00 | 78 | 1010.0 |